This is the latest recevied weather packets stored in our database for station/object KQ7A. If no packets are shown the sender has not sent any weather packets the latest 10 day(s).
| Time | Temp. | Humidity | Pressure | Rain* | Wind** | Luminosity | Snow |
|---|---|---|---|---|---|---|---|
| 1788124903 | 27.78° C | 22% | 1018.3 hPa | 0 mm | - | 661 W/m² | - |
| 1788124598 | 28.33° C | 22% | 1018.3 hPa | 0 mm | - | 664 W/m² | - |
| 1788124297 | 27.78° C | 22% | 1018.1 hPa | 0 mm | - | 672 W/m² | - |
| 1788123993 | 27.22° C | 24% | 1018.4 hPa | 0 mm | - | 659 W/m² | - |
| 1788123692 | 27.78° C | 23% | 1018.3 hPa | 0 mm | - | 670 W/m² | - |
| 1788123389 | 26.67° C | 24% | 1018.3 hPa | 0 mm | - | 670 W/m² | - |
| 1788123085 | 26.11° C | 23% | 1018.3 hPa | 0 mm | - | 675 W/m² | - |
| 1788122784 | 26.67° C | 22% | 1018.5 hPa | 0 mm | - | 683 W/m² | - |
| 1788122483 | 26.11° C | 24% | 1018.4 hPa | 0 mm | - | 673 W/m² | - |
| 1788122180 | 26.11° C | 27% | 1018.6 hPa | 0 mm | - | 665 W/m² | - |
| 1788121880 | 26.11° C | 23% | 1018.8 hPa | 0 mm | - | 682 W/m² | - |
| 1788121579 | 25.56° C | 23% | 1018.6 hPa | 0 mm | - | 682 W/m² | - |
| 1788121275 | 26.11° C | 24% | 1018.8 hPa | 0 mm | - | 692 W/m² | - |
| 1788120974 | 25.56° C | 25% | 1019.1 hPa | 0 mm | - | 693 W/m² | - |
| 1788120669 | 25.56° C | 23% | 1018.8 hPa | 0 mm | - | 693 W/m² | - |
| 1788120365 | 25.56° C | 24% | 1019 hPa | 0 mm | - | 708 W/m² | - |
| 1788120064 | 25.56° C | 27% | 1018.8 hPa | 0 mm | - | 719 W/m² | - |
| 1788119760 | 25.56° C | 24% | 1019.1 hPa | 0 mm | - | 735 W/m² | - |
| 1788119457 | 25.56° C | 26% | 1019 hPa | 0 mm | - | 745 W/m² | - |
| 1788119157 | 25° C | 27% | 1019 hPa | 0 mm | - | 747 W/m² | - |
| 1788118851 | 25° C | 30% | 1019 hPa | 0 mm | - | 747 W/m² | - |
| 1788118551 | 25° C | 24% | 1019.1 hPa | 0 mm | - | 739 W/m² | - |
| 1788118246 | 25° C | 30% | 1019.6 hPa | 0 mm | - | 758 W/m² | - |
| 1788117942 | 25° C | 25% | 1019.2 hPa | 0 mm | - | 762 W/m² | - |
| 1788117642 | 25° C | 31% | 1019.4 hPa | 0 mm | - | 765 W/m² | - |
* Rain latest hour (hover to see other rain measurements)
** Current wind speed in m/s (hover to see current wind gust speed)